Regional Weather Roundup
Issued by NWS Columbia, SC

Home | Current Version | Previous Version | Text Only | Print | Product List | Glossary On
Versions: 1 2 3 4 5 6 7 8 9 10 11 12 13 14 15 16 17 18 19 20 21 22 23 24 25 26 27 28 29 30 31 32 33 34 35 36 37 38 39 40 41 42 43 44 45 46 47 48 49 50
000
ASUS42 KCAE 020210
RWRCAE
REGIONAL WEATHER ROUNDUP
NATIONAL WEATHER SERVICE COLUMBIA SC
1000 PM EDT FRI AUG 01 2014

NOTE: "FAIR" INDICATES FEW OR NO CLOUDS BELOW 12,000 FEET WITH NO
SIGNIFICANT WEATHER AND/OR OBSTRUCTIONS TO VISIBILITY.

NOT ALL STATIONS ARE QUALITY CONTROLLED BY THE NATIONAL
WEATHER SERVICE. USE DATA WITH CAUTION...ESPECIALLY
DEWPOINT OBSERVATIONS.

SCZ001>056-GAZ040-063>065-077-020300-
...UPSTATE SOUTH CAROLINA...

CITY           SKY/WX    TMP DP  RH WIND       PRES   REMARKS
ANDERSON       CLOUDY    68  63  84 NE9       30.11R
LIBERTY        MOCLDY    65  32  28 E5        30.11R
SPARTANBURG    CLOUDY    68  68 100 NE7       30.12R
CLEMSON        PTCLDY    70  61  73 E8        30.12R
GREENVILLE     CLOUDY    67  62  84 NE9       30.12R
GREENWOOD      CLOUDY    68  63  84 NE9       30.11R
GREER          CLOUDY    67  64  90 NE6       30.11R
ROCK HILL      CLOUDY    66  64  93 N7        30.12R
CHESTER        CLOUDY    68  68 100 N9        30.12R
LAURENS        CLOUDY    66 N/A N/A N7        30.12R


...CENTRAL SOUTH CAROLINA...

CITY           SKY/WX    TMP DP  RH WIND       PRES   REMARKS
COLUMBIA APT   CLOUDY    74  68  81 N3        30.06R
COLUMBIA OWENS CLOUDY    74  69  85 CALM      30.08R
DARLINGTON     CLOUDY    72  66  83 N6        30.09R
FLORENCE       LGT RAIN  74  71  91 NE10      30.05R
MCENTIRE ANGB  CLOUDY    74  71  88 N3        30.07R
ORANGEBURG     LGT RAIN  74  71  91 NW5       30.04S
SUMTER SHAW    CLOUDY    75  73  92 NW5       30.04R
NEWBERRY       CLOUDY    66  66 100 N7        30.12S
AIKEN          CLOUDY    70  70 100 N9        30.10S
BARNWELL       MOCLDY    73  72  94 N5        30.06R
MANNING        CLOUDY    73 N/A N/A N3        30.04F
CAMDEN         CLOUDY    72  70  94 NE8       30.08R
LANCASTER      LGT RAIN  68  68 100 N5        30.10R
WINNSBORO      CLOUDY    68  68 100 NW7       30.08R


...EASTERN AND COASTAL SOUTH CAROLINA...

CITY           SKY/WX    TMP DP  RH WIND       PRES   REMARKS
MYRTLE BEACH   PTCLDY    77  72  83 S5        30.05R
N MYRTLE BCH   CLOUDY    79  72  79 S5        30.05R
CONWAY         FAIR      75  75 100 CALM      30.05R
MARION         RAIN      73  72  94 N3        30.06R
HARTSVILLE     CLOUDY    72  68  88 N7        30.09R
FLORENCE       LGT RAIN  74  71  91 NE10      30.05R
DARLINGTON     CLOUDY    72  66  83 N6        30.09R
CHARLESTON APT PTCLDY    78  72  81 E3        30.03R
MOUNT PLEASANT FAIR      75  73  94 CALM      30.03R
WALTERBORO     MOCLDY    77 N/A N/A CALM      30.05R
BEAUFORT       CLOUDY    79  75  87 CALM      30.04R


...EASTERN GEORGIA...

CITY           SKY/WX    TMP DP  RH WIND       PRES   REMARKS
AUGUSTA BUSH F CLOUDY    71  66  84 N8        30.06R
AUGUSTA DANIEL CLOUDY    71  66  84 N8        30.07R
THOMSON        MOCLDY    71  70  97 N5        30.11R
WASHINGTON     MOCLDY    72  72 100 NE5       30.09R
CLAXTON        FAIR     N/A N/A N/A CALM      30.02R
SYLVANIA       CLOUDY    75  75 100 SE3       30.04R FOG
STATESBORO     CLOUDY    74  74 100 CALM      30.02R
SAVANNAH       CLOUDY    78  75  90 N6        30.03R


...SOUTHERN NORTH CAROLINA...

CITY           SKY/WX    TMP DP  RH WIND       PRES   REMARKS
CHARLOTTE      CLOUDY    67  64  90 N7        30.12R
MONROE         CLOUDY    69  66  90 NE6       30.10R
WADESBORO      CLOUDY    69  66  90 NE5       30.10R
ROCKINGHAM       N/A     68  66  94 NE5       30.09R
RUTHERFORDTON  CLOUDY    66  63  90 N6        30.15R
ASHEVILLE      PTCLDY    65  60  84 CALM      30.17R

$$



USA.gov is the U.S. government's official web portal to all federal, state and local government web resources and services.